STARLINK-38074, 69741

Orbit data source: Space-Track

STARLINK-38074, 69741 is a payload satellite owned by SpaceX/Seattle (US) in SSO that was launched on Thu, 02 Jul 2026 UTC via an FALCON 9 launch vehicle from the Air Force Western Test Range (AFWTR). Payload-class satellites include a variety of spacecraft equipped with specific instruments for various scientific and technological missions. These include communications satellites like Starlink; space stations such as the ISS; scientific satellites like the Hubble; Earth observation satellites from companies like Planet Labs, Umbra, and HawkEye 360; GPS; miniature CubeSats for education and research; and military/defense satellites.

Loading next visibility...
Identifier
69741, 2026-150C
Orbit
SSO
Country
Flag of USUS
Related business
Manufacturer
SpaceX/Seattle
Mission
Operational spacecraft
Bus & Motor
STARLINK V2MO, Unknown motor
Mass
575 kg wet, ~530 kg dry
Launch date (UTC)
2026-07-02 (3 weeks ago)
Launch vehicle
FALCON 9
Launch site
Air Force Western Test Range (AFWTR)
Object type
Payload
Rocket body
Debris
Shape & HBR
Unknown shape, 17.7 m
Radar Cross Section
Large (>1 m²)

Expand to show TLE details & history
Last TLE update: 15 hours ago

TLE from 15 hours ago
0 STARLINK-38074
1 69741U 26150C   26202.58335648 -.00049560  00000-0 -33312-3 0  9996
2 69741  97.2852  41.2910 0001287  79.5411 104.5147 15.75204539  4326
Epoch: 2026-07-21T14:00Z
TLE epoch observation values (Epoch: 2026-07-21T14:00:01.999Z)
Latitude
-4.18971°
Longitude
71.39814°
Altitude
348.074 km
Speed
7.7 km/s
True Right ascension
14h 43m 01s
True Declination
-4° 09' 48"
Sunlit
Object was in daylight at epoch
Visualization orbit readout
Latitude
Unknown
Longitude
Unknown
Altitude
Unknown
Speed
Unknown
Apparent Right ascension
Unknown
Apparent Declination
Unknown
Sunlit
N/A
Visualization observer readout
Local Sidereal Time
17:46:18
Azimuth
Unknown
Elevation
Unknown
Doppler factor
Unknown
Orbital elements
Apogee altitude
341.801 km
Perigee altitude
340.072 km
Semi-major axis
6,719.074 km
Eccentricity
0.00013
Inclination
97.2852°
RAAN
41.291°
Arg. of periapsis
79.5411°
True anomaly
104.52898°
Mean anomaly
104.5147°
Eccentric anomaly
104.52184°
Mean motion
3.94075 °/min
Orbital period
91.35 mins
BSTAR
-0.00033312
Loading maneuver chart data...
Computing Atmospheric mass density...
Loading historical data...
Loading historical data...
Loading historical data...
Loading historical data...
Loading historical data...
Loading historical data...
Loading historical data...

Documentation

Showing up to 5 results
|